Location: St. Louis
(38.6270°N, 90.1994°W)
Time: 12:22:49
(UTC-06:00)

A-11 Canister half - Pass Details

Date: 11 December 2021
Orbit: 1524 x 1684 km, 47.3° (Epoch: 25 January)

Event Time Altitude Azimuth Distance (km) Brightness Sun altitude
Rises 04:41:32 0° 298° (WNW) 4,938 - -27.9°
Reaches altitude 10° 04:44:44 10° 300° (WNW) 3,941 - -27.3°
Exits shadow 04:50:25 39° 307° (NW) 2,321 9.4 -26.2°
Maximum altitude 04:54:54 79° 27° (NNE) 1,679 9.1 -25.3°
Drops below altitude 10° 05:04:45 10° 115° (ESE) 3,827 12.1 -23.5°
Sets 05:07:49 0° 116° (ESE) 4,789 12.9 -22.9°
